#timestamp,LO_Frequency,Hit,StdDev 
1659157215.5,286046993.4,N
1659157235.4,286046994.2,N
1659157255.2,286046995.2,N
1659157275.0,286046995.7,N
1659157275.9,286046995.7,N
1659157295.8,286046996.7,N
1659157315.6,286046995.4,N
1659157335.4,286046997.1,N
1659157355.3,286046995.5,N
1659157375.1,286046995.6,N
1659157395.9,286046997.1,N
1659157415.7,286046997.3,N
1659157435.5,286046994.9,Y
1659157455.4,286047001.2,P
1659157475.2,286047001.0,N
1659157495.0,286046999.3,N
1659157495.9,286046999.3,N
1659157515.8,286046999.4,N
1659157535.6,286046998.5,N
1659157555.5,286047000.7,N
1659157575.3,286047004.4,N
1659157595.1,286046999.0,N
1659157615.9,286047003.9,N
1659157635.7,286047002.5,N
1659157655.5,286047001.4,N
1659157675.4,286047002.5,N
1659157695.2,286047001.8,N
1659157715.1,286047002.8,N
1659157716.0,286047002.8,N
1659157735.8,286047000.5,N
1659157755.6,286047002.2,N
1659157775.5,286047002.2,N
1659157795.3,286046998.1,N
1659157815.2,286046998.6,N
1659157835.9,286046996.7,N
1659157855.7,286046997.7,N
1659157875.6,286047002.7,N
1659157895.4,286047000.3,N
1659157915.2,286046999.6,N
1659157935.1,286046998.7,N
1659157936.0,286046998.7,N
1659157955.8,286047001.4,N
1659157975.7,286047003.3,N
1659157995.5,286047001.9,N
1659158015.3,286046999.9,N
1659158035.2,286047000.3,N
1659158055.0,286047000.9,N
1659158055.9,286047000.9,N
1659158075.7,286047002.0,N
1659158095.6,286046998.5,N
1659158115.4,286046997.2,N
1659158135.3,286046995.3,N
1659158155.1,286046999.2,N
1659158175.8,286046999.0,N
1659158195.7,286046997.7,N
1659158215.5,286046995.5,N
1659158235.4,286046999.6,N
1659158255.2,286046998.3,N
1659158275.0,286046996.7,N
1659158275.9,286046996.7,N
1659158295.8,286046999.2,N
1659158315.6,286046997.5,N
1659158335.4,286046999.5,N
1659158355.3,286046999.9,N
1659158375.1,286046996.9,N
1659158395.9,286046998.2,N
1659158415.7,286046999.5,N
1659158435.5,286046999.2,N
1659158455.4,286046997.3,N
1659158475.2,286046999.0,N
1659158495.0,286047000.0,N
1659158495.9,286047000.0,N
1659158515.8,286047003.6,N
1659158535.6,286047001.4,N
1659158555.5,286047007.4,Y
1659158575.3,286047007.5,P
1659158595.1,286047004.9,N
1659158615.9,286047004.5,N
1659158635.7,286047004.9,N
1659158655.5,286047003.7,N
1659158675.4,286047003.8,N
1659158695.2,286047001.6,N
1659158715.1,286047003.8,N
1659158716.0,286047003.8,N
1659158735.8,286047002.8,N
1659158755.6,286047004.4,N
1659158775.5,286047005.1,N
1659158795.3,286047003.5,N
1659158815.1,286047004.6,N
1659158835.9,286047003.5,N
1659158855.7,286047001.3,N
1659158875.6,286047003.2,N
1659158895.4,286047006.8,Y
1659158915.2,286047005.1,P
1659158935.1,286047002.0,N
1659158936.0,286047002.0,N
1659158955.8,286047001.9,N
1659158975.7,286047004.0,Y
1659158995.5,286046998.6,P
1659159015.3,286046993.4,P
1659159035.2,286046996.8,N
1659159055.0,286046999.3,N
1659159055.9,286046999.3,N
1659159075.8,286046995.6,N
1659159095.6,286046998.5,N
1659159115.4,286046999.5,N
1659159135.3,286046996.2,N
1659159155.1,286046998.8,N
1659159175.9,286046999.5,N
1659159195.7,286046997.5,N
1659159215.5,286046997.4,N
1659159235.4,286046997.9,N
1659159255.2,286046996.4,N
1659159275.0,286046997.4,N
1659159275.9,286046997.4,N
1659159295.8,286046996.7,N
1659159315.6,286046994.3,N
1659159335.5,286046994.5,N
1659159355.3,286046996.3,N
1659159375.1,286046993.8,Y
1659159395.9,286046997.4,P
1659159415.7,286046998.1,P
1659159435.6,286046998.0,P
1659159455.4,286046995.6,Y
1659159475.2,286047000.7,P
1659159495.1,286047000.6,N
1659159496.0,286047000.6,N
1659159515.8,286046998.7,N
1659159535.6,286046996.9,N
1659159555.5,286046996.5,N
1659159575.3,286046996.9,N
1659159595.2,286046997.3,N
1659159615.9,286046999.6,N
1659159635.7,286046999.5,N
1659159655.6,286046996.4,N
1659159675.4,286046995.9,N
1659159695.2,286046995.3,N
1659159715.1,286046995.1,N
1659159716.0,286046995.1,N
1659159735.8,286046997.3,N
1659159755.7,286046997.0,N
1659159775.5,286046996.1,N
1659159795.3,286046993.9,Y
1659159815.2,286046997.9,P
1659159835.0,286046995.5,P
1659159835.9,286046995.5,P
1659159855.8,286046996.2,Y
1659159875.6,286047001.0,P
1659159895.4,286046999.9,N
1659159915.3,286047000.3,N
1659159935.1,286047004.0,N
1659159955.8,286047002.0,N
1659159975.7,286046998.9,N
1659159995.5,286046997.4,N
1659160015.4,286046999.3,N
1659160035.2,286047004.3,N
1659160055.0,286047000.3,N
1659160055.9,286047000.3,N
1659160075.8,286047000.0,N
1659160095.6,286047000.3,N
1659160115.4,286046998.2,N
1659160135.3,286046998.8,N
1659160155.1,286047000.5,N
1659160175.9,286047002.8,N
1659160195.7,286046998.7,N
1659160215.5,286047000.1,N
1659160235.4,286047001.5,N
1659160255.2,286047002.4,N
1659160275.0,286047004.4,N
1659160276.0,286047004.4,N
1659160295.8,286047000.8,N
1659160315.6,286046998.5,N
1659160335.5,286046999.6,N
1659160355.3,286046999.1,N
1659160375.1,286046997.0,N
1659160395.9,286046998.4,N
1659160415.7,286046998.6,N
1659160435.6,286046998.1,N
1659160455.4,286046999.4,N
1659160475.2,286047000.5,N
1659160495.1,286047000.9,N
1659160496.0,286047000.9,N
1659160515.8,286046998.1,N
1659160535.6,286047001.6,N
1659160555.5,286047001.5,N
1659160575.3,286047004.0,N
1659160595.2,286047001.7,N
1659160615.9,286047003.6,N
1659160635.7,286047001.9,N
1659160655.6,286046999.8,N
1659160675.4,286047001.3,N
1659160695.2,286047001.4,N
1659160715.1,286047001.7,N
1659160716.0,286047001.7,N
1659160735.8,286047002.3,N
1659160755.7,286047011.9,Y
1659160775.5,286046996.6,P
1659160795.3,286046999.6,N
